User: anonymous   Login
Location: San Francisco
(37.7750°N, 122.4180°W)
Time: 18:01:14
(UTC-08:00)
Language:

GP-B - Orbit

View from above orbital plane
View from above orbital plane
View from above satellite
View from above satellite

Ground track
Ground track

The orbit data is extracted from the following two-line orbital elements,

1 28230U 04014A   16038.31542961  .00000419  00000-0  55463-4 0  9994
2 28230  89.8691 130.9246 0003174 100.6136 259.5444 14.78358821635830
Epoch (UTC): 07 February 2016 07:34:13
Eccentricity: 0.0003174
inclination: 89.8691°
perigee height: 632 km
apogee height: 637 km
right ascension of ascending node: 130.9246°
argument of perigee: 100.6136°
revolutions per day: 14.78358821
mean anomaly at epoch: 259.5444°
orbit number at epoch: 63583

The dashed part of the orbit path shows where the satellite is in the earth's shadow,  

DLR